Location: Bouillancy
(49.1149°N, 2.9308°E)
Time: 22:14:59
(UTC+00:00)

DMSP B5D2-2 - Pass Details

Date: 30 September 2020
Orbit: 790 x 806 km, 98.3° (Epoch: 25 October)

Event Time Altitude Azimuth Distance (km) Brightness Sun altitude
Rises 19:51:21 0° 13° (NNE) 3,334 7.4 -23.7°
Reaches altitude 10° 19:53:42 10° 13° (NNE) 2,398 6.7 -24.0°
Maximum altitude 19:59:01 86° 286° (WNW) 813 4.0 -24.8°
Drops below altitude 10° 20:04:17 10° 198° (SSW) 2,373 6.4 -25.6°
Enters shadow 20:05:07 - 198° (SSW) 2,703 6.7 -25.7°
